CW3627 Weather Reports


time (UTC)temp
F
wind
direction
speed
knots
gust
knots
rain 1hr
in
rain 24hr
in
rain mn
in
humidity
%
barometer
mb
20200531074223 56 250 0.0 0.0 0.00 0.01 0.00 93 1014.1
20200531073735 56 250 0.0 0.0 0.00 0.01 0.00 93 1014.1
20200531073222 56 250 0.0 0.0 0.00 0.01 0.00 93 1014.1
20200531072736 56 250 0.0 0.0 0.00 0.01 0.00 93 1014.0
20200531072221 56 250 0.0 0.0 0.00 0.01 0.00 93 1014.0
20200531071731 56 250 0.0 0.0 0.00 0.01 0.00 93 1014.0
20200531071220 56 250 0.0 0.0 0.00 0.01 0.00 93 1014.1
20200531070728 56 250 0.0 0.0 0.00 0.01 0.00 93 1014.1
20200531070218 56 250 0.0 0.0 0.00 0.01 0.00 93 1014.1
20200531065734 57 250 0.0 0.0 0.00 0.02 0.01 93 1014.3
20200531065222 57 250 0.0 0.0 0.00 0.02 0.01 93 1014.3
20200531064729 57 250 0.0 0.0 0.00 0.02 0.01 92 1014.3
20200531064217 57 250 0.0 0.0 0.00 0.02 0.01 92 1014.4
20200531063722 57 250 0.0 0.0 0.00 0.02 0.01 92 1014.4
20200531063230 57 250 0.0 0.0 0.00 0.02 0.01 92 1014.4
20200531062718 57 250 0.0 0.0 0.00 0.02 0.01 92 1014.5
20200531062227 57 250 0.0 0.0 0.00 0.02 0.01 92 1014.5
20200531061737 57 250 0.0 0.0 0.00 0.02 0.01 92 1014.5
20200531061223 57 250 0.0 0.0 0.00 0.02 0.01 92 1014.5
20200531060736 57 250 0.0 2.6 0.00 0.02 0.01 92 1014.5
20200531060219 57 250 0.0 4.3 0.00 0.02 0.01 92 1014.5
20200531055729 58 157 0.0 4.3 0.00 0.02 0.01 91 1014.5
20200531055221 58 192 0.9 6.1 0.00 0.02 0.01 91 1014.5
20200531054728 58 211 1.7 5.2 0.00 0.02 0.01 91 1014.5
20200531054218 58 242 0.0 5.2 0.00 0.02 0.01 91 1014.5
20200531053730 58 221 0.0 2.6 0.00 0.02 0.01 90 1014.5
20200531053220 58 221 0.0 2.6 0.00 0.02 0.01 90 1014.5
20200531052722 58 202 0.0 2.6 0.00 0.02 0.01 90 1014.2
20200531052230 58 186 0.0 0.0 0.00 0.02 0.01 89 1014.2
20200531051722 58 224 0.0 0.0 0.00 0.02 0.01 89 1014.2
20200531051226 58 205 0.0 0.0 0.00 0.02 0.01 89 1014.1
20200531050730 59 205 0.0 0.0 0.00 0.02 0.01 89 1014.1
20200531050218 59 206 0.0 0.0 0.00 0.02 0.01 89 1014.1
20200531045729 59 196 0.0 0.0 0.00 0.02 0.01 88 1014.1
20200531045219 59 196 0.0 0.0 0.00 0.02 0.01 88 1014.1
20200531044735 59 209 0.0 0.0 0.00 0.02 0.01 88 1014.1
20200531044223 59 209 0.0 0.0 0.00 0.02 0.01 87 1014.1
20200531043736 59 207 0.0 0.0 0.00 0.02 0.01 87 1014.1
20200531043226 59 207 0.0 0.0 0.00 0.02 0.01 87 1014.1
20200531042717 59 207 0.0 0.0 0.00 0.02 0.01 87 1014.0
20200531042223 59 207 0.0 0.0 0.00 0.02 0.01 87 1014.0
20200531041731 60 234 0.0 0.0 0.00 0.02 0.01 86 1014.0
20200531041222 60 232 0.0 0.0 0.00 0.02 0.01 86 1014.0
20200531040730 60 233 0.0 3.5 0.00 0.02 0.01 86 1014.0
20200531040222 60 236 0.0 4.3 0.00 0.02 0.01 86 1014.0
20200531035732 60 261 1.7 5.2 0.00 0.02 0.01 86 1014.0
20200531035220 60 239 0.9 5.2 0.00 0.02 0.01 86 1014.0
20200531034733 60 248 0.0 4.3 0.00 0.02 0.01 85 1014.0
20200531034222 60 202 0.9 4.3 0.00 0.02 0.01 85 1013.7
20200531033729 60 237 0.9 4.3 0.00 0.02 0.01 86 1013.7
20200531033235 60 242 0.9 4.3 0.00 0.02 0.01 86 1013.7
20200531032721 61 215 0.0 3.5 0.00 0.02 0.01 85 1013.5
20200531032230 61 195 0.0 3.5 0.00 0.02 0.01 85 1013.5
20200531031720 61 250 0.9 3.5 0.00 0.02 0.01 85 1013.5
20200531031230 61 252 0.0 5.2 0.00 0.02 0.01 85 1013.4
20200531030717 61 229 0.0 5.2 0.00 0.02 0.01 84 1013.4
20200531030228 61 194 2.6 7.0 0.00 0.02 0.01 83 1013.4
20200531025719 62 255 1.7 7.0 0.00 0.02 0.01 82 1013.1
20200531025227 62 240 3.5 7.0 0.00 0.02 0.01 81 1013.1
20200531024717 63 242 2.6 7.0 0.00 0.02 0.01 79 1013.1
20200531024231 63 198 0.9 7.0 0.00 0.02 0.01 78 1012.9
20200531023722 63 264 0.9 7.0 0.00 0.02 0.01 76 1012.9
20200531023231 64 259 2.6 6.1 0.00 0.02 0.01 76 1012.9
20200531022721 64 222 0.9 6.1 0.00 0.02 0.01 75 1012.8
20200531022229 64 232 0.9 5.2 0.00 0.02 0.01 75 1012.8
20200531021735 64 240 0.0 6.1 0.00 0.02 0.01 74 1012.8
20200531021219 64 260 1.7 5.2 0.00 0.02 0.01 73 1012.8
20200531020727 64 242 0.9 4.3 0.00 0.02 0.01 73 1012.8
20200531020222 65 244 0.9 5.2 0.00 0.02 0.01 72 1012.8
20200531015726 65 226 2.6 7.0 0.00 0.02 0.01 71 1012.7
20200531015216 65 232 1.7 6.1 0.00 0.02 0.01 70 1012.7
20200531014724 65 255 1.7 7.0 0.00 0.02 0.01 70 1012.7
20200531014231 66 261 3.5 7.0 0.00 0.02 0.01 70 1012.5
20200531013719 66 236 3.5 5.2 0.00 0.02 0.01 70 1012.5
20200531013223 66 192 0.0 5.2 0.00 0.02 0.01 71 1012.5
20200531012734 66 182 0.9 5.2 0.00 0.02 0.01 71 1012.5
20200531012221 66 261 0.0 3.5 0.00 0.02 0.01 71 1012.5
20200531011730 66 237 0.0 4.3 0.00 0.02 0.01 70 1012.5
20200531011221 66 213 0.9 4.3 0.00 0.02 0.01 71 1012.8
20200531010731 66 198 0.0 7.8 0.00 0.02 0.01 71 1012.8
20200531010223 66 215 2.6 7.8 0.00 0.02 0.01 70 1012.8
20200531005731 66 236 1.7 6.1 0.00 0.02 0.01 71 1012.8
20200531005216 66 184 1.7 6.1 0.00 0.02 0.01 71 1012.8
20200531004727 66 239 2.6 5.2 0.00 0.02 0.01 73 1012.8
20200531004215 66 205 0.0 5.2 0.00 0.02 0.01 73 1012.9
20200531003723 66 269 1.7 6.1 0.00 0.02 0.01 72 1012.9
20200531003234 66 240 1.7 6.1 0.00 0.02 0.01 73 1012.9
20200531002721 66 230 0.0 7.0 0.00 0.02 0.01 73 1012.9
20200531002229 66 263 0.0 8.7 0.00 0.02 0.01 74 1012.9
20200531001722 66 251 1.7 7.8 0.00 0.02 0.01 73 1012.9
20200531001233 66 276 2.6 7.8 0.00 0.02 0.01 75 1012.8
20200531000720 66 189 0.9 7.8 0.00 0.02 0.01 75 1012.8
20200531000229 66 259 0.9 9.6 0.00 0.02 0.01 74 1012.8
20200530235735 66 266 5.2 9.6 0.00 0.02 0.01 72 1012.6
20200530235220 66 243 0.9 4.3 0.00 0.02 0.01 74 1012.6
20200530234729 66 202 0.0 7.8 0.00 0.02 0.01 74 1012.6
20200530234235 66 181 0.0 7.8 0.00 0.02 0.01 74 1012.6
20200530233720 66 211 1.7 7.8 0.00 0.02 0.01 75 1012.6
20200530233216 66 258 3.5 7.8 0.00 0.02 0.01 74 1012.6
20200530232728 65 207 2.6 7.0 0.00 0.02 0.01 75 1012.6
20200530232218 65 236 3.5 7.0 0.00 0.02 0.01 76 1012.6
20200530231732 65 188 0.9 11.3 0.00 0.02 0.01 76 1012.6
20200530231227 66 248 6.1 11.3 0.00 0.02 0.01 75 1012.8
20200530230733 66 250 4.3 10.4 0.00 0.02 0.01 74 1012.8
20200530230219 66 173 3.5 10.4 0.00 0.02 0.01 73 1012.8
20200530225730 66 180 2.6 7.0 0.00 0.02 0.01 73 1012.8
20200530225220 66 198 3.5 11.3 0.00 0.02 0.01 73 1012.8
20200530224726 66 192 4.3 11.3 0.00 0.02 0.01 74 1012.8
20200530224233 67 240 1.7 9.6 0.00 0.02 0.01 73 1012.7
20200530223722 67 198 1.7 7.8 0.00 0.02 0.01 72 1012.7
20200530223226 68 191 1.7 7.0 0.00 0.02 0.01 71 1012.7
20200530222734 68 249 1.7 13.0 0.00 0.02 0.01 72 1013.0
20200530222222 68 292 4.3 13.0 0.00 0.02 0.01 72 1013.0
20200530221728 68 163 5.2 13.0 0.00 0.02 0.01 71 1013.0
20200530221235 68 224 3.5 11.3 0.00 0.02 0.01 72 1013.0
20200530220723 68 246 4.3 11.3 0.00 0.02 0.01 71 1013.0
20200530220233 68 200 3.5 10.4 0.00 0.02 0.01 72 1013.0
20200530215718 67 196 3.5 7.8 0.00 0.02 0.01 73 1012.9
20200530215222 67 165 4.3 7.8 0.00 0.02 0.01 75 1012.9
20200530214734 67 144 2.6 9.6 0.00 0.02 0.01 75 1012.9
20200530214219 67 249 2.6 8.7 0.00 0.02 0.01 76 1012.9
20200530213729 67 237 3.5 11.3 0.00 0.02 0.01 77 1012.9
20200530213218 66 236 2.6 11.3 0.00 0.02 0.01 77 1012.9
20200530212726 66 181 5.2 11.3 0.00 0.02 0.01 76 1012.9
20200530212235 67 234 6.1 11.3 0.00 0.02 0.01 76 1012.9
20200530211724 67 238 5.2 11.3 0.00 0.02 0.01 75 1012.9
20200530211236 67 216 2.6 9.6 0.00 0.02 0.01 75 1012.7
20200530210720 68 238 4.3 9.6 0.00 0.02 0.01 73 1012.7
20200530210218 68 252 1.7 8.7 0.00 0.02 0.01 71 1012.7
20200530205723 68 250 3.5 8.7 0.00 0.02 0.01 73 1012.6
20200530205227 69 245 1.7 8.7 0.00 0.02 0.01 72 1012.6
20200530204736 69 224 2.6 8.7 0.00 0.02 0.01 71 1012.6
20200530204227 69 257 0.9 6.1 0.00 0.02 0.01 70 1012.5
20200530203735 69 225 1.7 6.1 0.00 0.02 0.01 70 1012.5
20200530203221 69 272 1.7 6.1 0.00 0.02 0.01 69 1012.5
20200530202728 70 210 3.5 6.1 0.00 0.02 0.01 68 1012.4
20200530202237 70 245 2.6 6.1 0.00 0.02 0.01 65 1012.4
20200530201726 70 209 0.0 3.5 0.00 0.02 0.01 64 1012.4
20200530201236 70 220 0.9 4.3 0.00 0.02 0.01 64 1012.5
20200530200722 70 244 1.7 4.3 0.00 0.02 0.01 64 1012.5
20200530200228 70 182 0.0 0.0 0.00 0.02 0.01 65 1012.5
20200530195718 70 182 0.0 3.5 0.00 0.02 0.01 63 1012.6
20200530195232 70 257 0.0 3.5 0.00 0.02 0.01 62 1012.6
20200530194720 70 268 0.0 2.6 0.00 0.02 0.01 62 1012.6
20200530194225 70 273 0.0 2.6 0.00 0.02 0.01 63 1012.5
20200530193732 70 287 0.0 3.5 0.00 0.02 0.01 66 1012.5
20200530193220 70 241 0.9 4.3 0.00 0.02 0.01 66 1012.5
20200530192729 69 262 0.9 4.3 0.00 0.02 0.01 65 1012.4
20200530192217 69 238 0.0 7.8 0.00 0.02 0.01 64 1012.4
20200530191724 70 219 0.9 7.8 0.00 0.02 0.01 64 1012.4
20200530191216 70 221 0.0 2.6 0.00 0.02 0.01 64 1012.3
20200530190728 70 90 0.9 3.5 0.00 0.02 0.01 66 1012.3
20200530190215 69 242 0.9 3.5 0.00 0.02 0.01 67 1012.3
20200530185728 69 242 0.9 4.3 0.00 0.02 0.01 67 1012.3
20200530185233 68 234 0.0 2.6 0.00 0.02 0.01 69 1012.3
20200530184717 68 231 0.0 3.5 0.00 0.02 0.01 69 1012.3
20200530184222 67 351 0.0 3.5 0.00 0.02 0.01 70 1012.4
20200530183732 67 175 0.0 0.0 0.00 0.02 0.01 72 1012.4
20200530183225 67 175 0.0 0.0 0.00 0.02 0.01 71 1012.4
20200530182730 67 175 0.0 0.0 0.00 0.02 0.01 71 1012.4
20200530182227 67 175 0.0 0.0 0.00 0.02 0.01 70 1012.4
20200530181719 67 175 0.0 0.0 0.00 0.02 0.01 71 1012.4
20200530181228 67 175 0.0 0.0 0.00 0.02 0.01 70 1012.5
20200530180717 67 175 0.0 0.0 0.00 0.02 0.01 70 1012.5
20200530180226 67 198 0.0 0.0 0.00 0.02 0.01 70 1012.5
20200530175734 67 198 0.0 5.2 0.00 0.02 0.01 69 1012.5
20200530175219 67 192 0.0 5.2 0.00 0.02 0.01 71 1012.5
20200530174725 66 327 0.0 1.7 0.00 0.02 0.01 74 1012.5
20200530174233 66 205 0.0 0.9 0.00 0.02 0.01 74 1012.8
20200530173721 65 205 0.0 0.0 0.00 0.02 0.01 74 1012.8
20200530173232 65 205 0.0 0.0 0.00 0.02 0.01 74 1012.8
20200530172718 65 205 0.0 0.0 0.00 0.02 0.01 74 1012.9
20200530172225 65 205 0.0 0.0 0.00 0.02 0.01 74 1012.9
20200530171718 65 205 0.0 0.0 0.00 0.02 0.01 75 1012.9
20200530171235 65 205 0.0 0.0 0.00 0.02 0.01 74 1012.8
20200530170721 65 205 0.0 0.0 0.00 0.02 0.01 75 1012.8
20200530170227 65 205 0.0 0.0 0.00 0.02 0.01 75 1012.8
20200530165718 65 205 0.0 4.3 0.00 0.02 0.01 74 1012.8
20200530165226 66 205 0.9 4.3 0.00 0.02 0.01 75 1012.8
20200530164731 66 59 0.0 0.0 0.00 0.02 0.01 75 1012.8
20200530164224 66 59 0.0 0.0 0.00 0.02 0.01 75 1012.8
20200530163717 65 59 0.0 0.0 0.00 0.02 0.01 76 1012.8
20200530163231 65 57 0.0 0.0 0.00 0.02 0.01 77 1012.8
20200530162720 64 171 0.0 0.0 0.00 0.02 0.01 78 1012.5
20200530162226 64 171 0.0 0.0 0.00 0.02 0.01 78 1012.5
20200530161732 64 115 0.0 0.0 0.00 0.02 0.01 80 1012.5
20200530161229 64 114 0.0 1.7 0.00 0.02 0.01 79 1012.4
20200530160718 64 88 0.0 1.7 0.00 0.02 0.01 80 1012.4
20200530160225 64 194 0.0 0.0 0.00 0.02 0.01 82 1012.4
20200530155732 63 194 0.0 3.5 0.00 0.02 0.01 82 1012.3
20200530155217 63 194 0.9 3.5 0.00 0.02 0.01 81 1012.3
20200530154728 63 193 0.0 0.9 0.00 0.02 0.01 83 1012.3
20200530154217 63 194 0.0 2.6 0.00 0.02 0.01 83 1012.0
20200530153724 63 194 0.0 2.6 0.00 0.02 0.01 84 1012.0
20200530153233 63 90 0.9 2.6 0.00 0.02 0.01 86 1012.0
20200530152716 63 96 0.0 0.9 0.00 0.02 0.01 87 1012.3
20200530152227 62 93 0.0 3.5 0.00 0.02 0.01 88 1012.3
20200530151738 62 94 0.0 3.5 0.00 0.02 0.01 88 1012.3
20200530151224 62 107 0.0 2.6 0.00 0.02 0.01 89 1012.0
20200530150734 61 107 0.0 2.6 0.00 0.02 0.01 91 1012.0
20200530150223 61 199 0.0 0.0 0.00 0.02 0.01 93 1012.0
20200530145718 60 199 0.0 0.0 0.00 0.02 0.01 93 1012.0
20200530145227 60 199 0.0 0.0 0.00 0.02 0.01 93 1012.0
20200530144715 60 199 0.0 0.0 0.00 0.02 0.01 94 1012.0
20200530144223 60 199 0.0 0.0 0.00 0.02 0.01 94 1012.1
20200530143730 60 199 0.0 0.0 0.00 0.02 0.01 95 1012.1
20200530143225 59 199 0.0 0.0 0.00 0.02 0.01 95 1012.1
20200530142717 59 199 0.0 0.0 0.00 0.02 0.01 95 1012.1
20200530142226 59 199 0.0 0.0 0.00 0.02 0.01 95 1012.1
20200530141733 59 199 0.0 0.0 0.00 0.02 0.01 95 1012.1
20200530141220 59 199 0.0 0.0 0.00 0.02 0.01 95 1012.2
20200530140727 59 199 0.0 0.0 0.00 0.02 0.01 95 1012.2
20200530140220 59 199 0.0 0.0 0.00 0.02 0.01 95 1012.2
20200530135726 59 199 0.0 0.0 0.00 0.02 0.01 95 1012.4
20200530135236 59 199 0.0 0.0 0.00 0.02 0.01 95 1012.4
20200530134731 59 199 0.0 0.0 0.00 0.02 0.01 95 1012.4
20200530134221 59 199 0.0 0.0 0.00 0.02 0.01 95 1012.3
20200530133729 59 199 0.0 0.0 0.00 0.02 0.01 95 1012.3
20200530133221 59 199 0.0 0.0 0.00 0.02 0.01 95 1012.3
20200530132729 59 199 0.0 0.0 0.00 0.02 0.01 95 1011.9
20200530132233 59 199 0.0 0.0 0.00 0.02 0.01 95 1011.9
20200530131725 59 199 0.0 0.0 0.00 0.02 0.01 95 1011.9
20200530131235 59 199 0.0 0.0 0.00 0.02 0.01 95 1011.9
20200530130723 59 199 0.0 0.0 0.00 0.02 0.01 95 1011.9
20200530130231 59 199 0.0 0.0 0.00 0.02 0.01 95 1011.9
20200530125723 59 199 0.0 0.0 0.00 0.02 0.01 95 1011.9
20200530125232 59 199 0.0 0.0 0.00 0.02 0.01 95 1011.9
20200530124718 59 199 0.0 0.0 0.00 0.02 0.01 95 1011.9
20200530124224 59 199 0.0 0.0 0.00 0.02 0.01 95 1011.9
20200530123731 59 199 0.0 0.0 0.00 0.02 0.01 95 1011.9
20200530123216 59 199 0.0 0.0 0.00 0.02 0.01 95 1011.9
20200530122732 59 199 0.0 0.0 0.00 0.02 0.01 95 1011.6
20200530122221 59 199 0.0 0.0 0.00 0.02 0.01 95 1011.6
20200530121733 59 199 0.0 0.0 0.00 0.02 0.01 95 1011.6
20200530121219 59 199 0.0 0.0 0.00 0.02 0.01 95 1011.6
20200530120734 58 199 0.0 0.0 0.00 0.02 0.01 95 1011.6
20200530120223 58 199 0.0 0.0 0.00 0.02 0.01 95 1011.6
20200530115730 58 199 0.0 0.0 0.00 0.02 0.01 95 1011.4
20200530115237 58 199 0.0 0.0 0.00 0.02 0.01 95 1011.4
20200530114724 58 199 0.0 0.0 0.00 0.02 0.01 95 1011.4
20200530114232 58 199 0.0 0.0 0.00 0.02 0.01 95 1011.5
20200530113727 58 105 0.0 0.0 0.00 0.02 0.01 95 1011.5
20200530113235 58 105 0.0 0.0 0.00 0.02 0.01 95 1011.5
20200530112722 58 105 0.0 0.0 0.00 0.02 0.01 95 1011.2
20200530112231 58 105 0.0 0.0 0.00 0.02 0.01 95 1011.2
20200530111724 58 105 0.0 0.0 0.00 0.02 0.01 95 1011.2
20200530111231 58 105 0.0 0.0 0.00 0.02 0.01 95 1011.2
20200530110719 58 105 0.0 0.0 0.00 0.02 0.01 95 1011.2
20200530110224 58 105 0.0 0.0 0.00 0.02 0.01 95 1011.2
20200530105732 58 105 0.0 0.0 0.00 0.02 0.01 95 1011.3
20200530105220 58 105 0.0 0.0 0.00 0.02 0.01 95 1011.3
20200530104733 58 105 0.0 0.0 0.00 0.02 0.01 95 1011.3
20200530104218 58 105 0.0 0.0 0.00 0.02 0.01 95 1011.4
20200530103726 58 105 0.0 0.0 0.00 0.02 0.01 95 1011.4
20200530103236 58 105 0.0 0.0 0.00 0.02 0.01 95 1011.4
20200530102724 58 105 0.0 0.0 0.00 0.02 0.01 95 1011.0
20200530102234 58 105 0.0 0.0 0.00 0.02 0.01 95 1011.0
20200530101722 58 105 0.0 0.0 0.00 0.02 0.01 95 1011.0
20200530101228 58 105 0.0 0.0 0.00 0.02 0.01 95 1010.9
20200530100718 58 105 0.0 0.0 0.00 0.02 0.01 95 1010.9
20200530100229 58 105 0.0 0.0 0.00 0.02 0.01 95 1010.9
20200530095720 58 105 0.0 0.0 0.00 0.02 0.01 95 1011.0
20200530095228 58 105 0.0 0.0 0.00 0.02 0.01 95 1011.0
20200530094735 58 105 0.0 0.0 0.00 0.02 0.01 95 1011.0
20200530094220 58 105 0.0 0.0 0.00 0.02 0.01 95 1011.0
20200530093730 58 105 0.0 0.0 0.00 0.02 0.01 95 1011.0
20200530093219 58 105 0.0 0.0 0.00 0.02 0.01 95 1011.0
20200530092725 58 105 0.0 0.0 0.00 0.02 0.01 95 1010.9
20200530092236 58 105 0.0 0.0 0.01 0.02 0.01 95 1010.9
20200530091722 58 105 0.0 0.0 0.01 0.02 0.01 95 1010.9
20200530091236 58 105 0.0 0.0 0.01 0.02 0.01 95 1010.9
20200530090727 58 105 0.0 0.0 0.01 0.02 0.01 95 1010.9
20200530090219 58 105 0.0 0.0 0.01 0.02 0.01 95 1010.9
20200530085726 58 105 0.0 0.0 0.01 0.02 0.01 95 1010.9
20200530085233 58 105 0.0 0.0 0.01 0.02 0.01 95 1010.9
20200530084722 58 105 0.0 0.0 0.01 0.02 0.01 95 1010.9
20200530084231 58 105 0.0 0.0 0.01 0.02 0.01 95 1010.9
20200530083720 58 105 0.0 0.0 0.01 0.02 0.01 95 1010.9
20200530083228 58 105 0.0 0.0 0.01 0.02 0.01 94 1010.9
20200530082722 58 105 0.0 0.0 0.01 0.02 0.01 94 1011.2
20200530082233 58 105 0.0 0.0 0.00 0.01 0.00 94 1011.2
20200530081722 58 105 0.0 0.0 0.00 0.01 0.00 94 1011.2
20200530081229 58 105 0.0 0.0 0.00 0.01 0.00 94 1011.3
20200530080723 58 105 0.0 0.9 0.00 0.01 0.00 94 1011.3
20200530080231 58 107 0.0 0.0 0.00 0.01 0.00 95 1011.3
20200530075719 58 107 0.0 0.0 0.00 0.01 0.00 94 1011.3
20200530075227 58 107 0.0 0.0 0.00 0.01 0.00 94 1011.3
20200530074718 58 107 0.0 0.0 0.00 0.01 0.00 94 1011.3